Simultaneous Nadir Overpasses (SNOs) Predictions

Prediction of SNOs between GOES-15 and TERRA Satellite Orbit:

Table of predicted SNOs for the next 14.0 days since TLE Epoch: 2/10/2024
Index Date Time (GOES-15) GOES-15 Lat,Lon TERRA Lat,Lon Distance(km) Time Diff (sec)
1 02/11/2024 17:44:55 -0.01, 61.49 0.11, 62.00 57.88 80
2 02/12/2024 06:04:56 0.01, 61.51 0.92, 57.13 497.07 80
3 02/14/2024 05:47:57 0.01, 61.49 0.10, 61.24 29.14 80
4 02/16/2024 05:33:39 0.01, 61.47 -0.82, 65.32 438.65 80
5 02/16/2024 17:53:49 -0.01, 61.44 -0.23, 60.42 115.58 80
6 02/18/2024 17:34:10 -0.00, 61.43 0.66, 64.52 351.15 80
7 02/19/2024 05:54:11 -0.00, 61.46 0.37, 59.65 204.89 80
8 02/21/2024 05:39:51 0.00, 61.45 -0.49, 63.75 262.27 80
9 02/21/2024 18:00:01 -0.00, 61.41 -0.53, 58.85 290.72 80
10 02/23/2024 17:40:20 -0.00, 61.40 0.30, 62.96 176.25 80
